Regional Weather Roundup
Issued by NWS Cleveland, OH

Home | Current Version | Previous Version | Graphics & Text | Print | Product List | Glossary On
Versions: 1 2 3 4 5 6 7 8 9 10 11 12 13 14 15 16 17 18 19 20 21 22 23 24 25 26 27 28 29 30 31 32 33 34 35 36 37 38 39 40 41 42 43 44 45 46 47 48 49 50
000
ASUS41 KCLE 260502
RWRCLE
OHIO REGIONAL WEATHER ROUNDUP
NATIONAL WEATHER SERVICE CLEVELAND, OH
100 AM EDT SUN APR 26 2015

NOTE: "FAIR" INDICATES FEW OR NO CLOUDS BELOW 12,000 FEET WITH NO
SIGNIFICANT WEATHER AND/OR OBSTRUCTIONS TO VISIBILITY.

OHZ001>008-015>018-024>027-034-035-043-044-260600-
   NORTHWEST OHIO

CITY           SKY/WX    TMP DP  RH WIND       PRES   REMARKS
DEFIANCE       MOCLDY    42  31  64 NE7       29.82R
FINDLAY        CLOUDY    42  31  64 NE13      29.78R
TOLEDO EXPRESS MOCLDY    43  27  53 NE10      29.80R
TOLEDO EXEC    MOCLDY    44  29  55 NE9       29.81S
LIMA           CLOUDY    39  30  70 NE12      29.77S
$$

OHZ009>014-019>023-028>033-038-089-260600-
   NORTHEAST OHIO

CITY           SKY/WX    TMP DP  RH WIND       PRES   REMARKS
CLE-HOPKINS    CLOUDY    41  31  67 N12       29.79R
CLE-LAKEFRONT  MOCLDY    43  33  68 NE14      29.76S
CUY CO. ARPT   NOT AVBL
LORAIN-ELYRIA  CLOUDY    41  29  62 NE10G20   29.78R
ASHTABULA      PTCLDY    38  24  57 NE3       29.77R
AKRON-CANTON   CLOUDY    43  24  47 NE14      29.72R
WOOSTER        CLOUDY    41  24  51 N7        29.74R
MANSFIELD      CLOUDY    41  25  53 N8        29.73S
YOUNGSTOWN     CLOUDY    41  26  55 NE10      29.72R
$$

OHZ042-051>053-060>062-070>072-077>081-260600-
  SOUTHWEST OHIO

CITY           SKY/WX    TMP DP  RH WIND       PRES   REMARKS
CINC-COVINGTON LGT RAIN  45  41  86 NE15      29.67R
CINC-LUNKEN    CLOUDY    45  42  89 NE9       29.70R
HAMILTON       CLOUDY    46  41  82 NE9G17    29.71R
DAYTON         CLOUDY    43  33  68 NE12      29.73S
WRIGHT-PAT AFB CLOUDY    43  36  75 NE12      29.72R
DAYTON GENERAL CLOUDY    43  38  82 NE14      29.70R
WILMINGTON     CLOUDY    43  38  82 NE14      29.68R
$$

OHZ036-037-039>041-045>050-054>059-063>069-073>076-082>088-260600-
  CENTRAL AND SOUTHEAST OHIO

CITY           SKY/WX    TMP DP  RH WIND       PRES   REMARKS
COLUMBUS       CLOUDY    42  32  67 N9        29.71S
OSU AIRPORT    CLOUDY    41  34  76 N10       29.72R
BOLTON FIELD   NOT AVBL
RICKENBACK AFB CLOUDY    43  39  85 N10       29.70S
NEWARK         CLOUDY    43  35  73 N7        29.70S
MARION         CLOUDY    39  31  72 N10       29.75S
LANCASTER      CLOUDY    44  39  82 N7        29.70S
ZANESVILLE     CLOUDY    42  38  85 N3        29.69S
NEW PHILLY     CLOUDY    46  29  51 VRB7      29.71R
$$


USA.gov is the U.S. government's official web portal to all federal, state and local government web resources and services.